Simultaneous Nadir Overpasses (SNOs) Predictions

Prediction of SNOs between GOES-15 and NOAA-20 Satellite Orbit:

Table of predicted SNOs for the next 14.0 days since TLE Epoch: 2/26/2022
Index Date Time (GOES-15) GOES-15 Lat,Lon NOAA-20 Lat,Lon Distance(km) Time Diff (sec)
1 02/26/2022 21:55:50 -0.03,-127.61 -0.10,-128.01 44.92 80
2 02/27/2022 21:39:46 -0.03,-127.57 0.91,-123.48 466.80 80
3 03/01/2022 10:01:34 0.04,-127.48 0.33,-128.74 144.05 80
4 03/02/2022 09:40:11 0.04,-127.44 -0.69,-124.22 367.39 80
5 03/03/2022 22:02:08 -0.04,-127.40 -0.54,-129.51 241.16 80
6 03/04/2022 21:46:05 -0.04,-127.36 0.48,-124.99 270.54 80
7 03/06/2022 10:07:54 0.04,-127.27 0.70,-130.26 340.01 80
8 03/07/2022 09:46:31 0.04,-127.23 -0.32,-125.73 171.14 80
9 03/08/2022 22:08:28 -0.05,-127.18 -0.90,-131.03 438.54 80
10 03/09/2022 21:52:24 -0.04,-127.13 0.12,-126.50 72.62 80
